Miscellaneous Local Product
Issued by NWS North Platte, NE

Home | Current Version | Previous Version | Graphics & Text | Print | Product List | Glossary On
Versions: 1 2 3 4 5 6 7 8 9 10 11 12 13 14 15 16 17 18 19 20 21 22 23 24 25 26 27 28 29 30 31 32 33 34 35 36 37 38 39 40 41 42 43 44 45 46 47 48 49 50
000
AXUS43 KLBF 280510
MISLBF


WESTERN AND NORTH CENTRAL NEBRASKA HOURLY WEATHER ROUNDUP
NATIONAL WEATHER SERVICE NORTH PLATTE NE
1100 PM CST TUE JAN 27 2015

***STATIONS NOT REPORTING VARIABLES SUCH AS SKY/WEATHER OR
PRESSURE ARE PROVIDED BY THE NEBRASKA DEPARTMENT OF
ROADS...RAWS...AND APRS NETWORKS...AND ARE NOT UNDER
NATIONAL WEATHER SERVICE QUALITY CONTROL***

...OBSERVATIONS IN AND NEAR THE EASTERN PANHANDLE OF NEBRASKA...

CITY           SKY/WX    TMP DP  RH WIND       PRES   REMARKS
PINE RIDGE     MOCLDY    30  25  81 E3        29.88F
CHADRON        CLEAR     33  27  78 CALM      29.89F
ALLIANCE       CLEAR     34  27  75 W3        29.93F
SIDNEY         PTCLDY    37  28  70 NW12      29.96F WCI  29
WHITECLAY        N/A     34  27  75 SE7         N/A  WCI  28
CRESCENT LAKE    N/A     46  27  47 CALM        N/A
LISCO            N/A     37  24  60 W3          N/A
LEWELLEN         N/A     38  30  71 CALM        N/A
$$

...OBSERVATIONS IN NORTH CENTRAL NEBRASKA...

CITY           SKY/WX    TMP DP  RH WIND       PRES   REMARKS
VALENTINE      CLOUDY    37  31  78 W7        29.86S WCI  32
THEDFORD       PTCLDY    44  32  63 SW6       29.89F
AINSWORTH      PTCLDY    41  31  68 S5        29.85F
O`NEILL        PTCLDY    40  34  77 S12       29.88F WCI  34
ORD            CLEAR     38  30  73 CALM      29.90S
BROKEN BOW     PTCLDY    35  28  75 CALM      29.90S
BROWNLEE         N/A     52  30  42 SW3         N/A
VALENTINE NWR    N/A     45  30  55 CALM        N/A
SPRINGVIEW       N/A     30  26  84 CALM        N/A
HALSEY           N/A     48  29  47 CALM        N/A
BREWSTER         N/A     37  31  80 CALM        N/A
ROSE             N/A     43  35  74 E8          N/A
NEWPORT          N/A     40  34  80 S7          N/A  WCI  35
SARGENT          N/A     38  32  79 CALM        N/A
COMSTOCK         N/A     46  32  57 S12         N/A
CHAMBERS         N/A     40  32  73 S6G13       N/A
EWING            N/A     37  32  83 SE5         N/A  WCI  33
$$

...OBSERVATIONS IN SOUTHWEST NEBRASKA AND FAR NORTHEAST COLORADO...

CITY           SKY/WX    TMP DP  RH WIND       PRES   REMARKS
WRAY           FAIR      44  32  63 W7        29.92F
HOLYOKE        FAIR      36  28  75 CALM      29.92F
IMPERIAL       PTCLDY    39  27  62 SW3       29.91F
OGALLALA       MOCLDY    34  28  80 SW3       29.92R
NORTH PLATTE   CLEAR     30  25  81 CALM      29.90F
MCCOOK         PTCLDY    44  29  55 CALM      29.90S
LEXINGTON      PTCLDY    35  29  79 E3        29.90F
BRADY            N/A     35  27  74 CALM        N/A
GOTHENBURG       N/A     38  26  61 N3          N/A
CALLAWAY         N/A     42  30  63 S5          N/A
$$

...NORTH PLATTE AREA...

CITY           SKY/WX    TMP DP  RH WIND       PRES   REMARKS
AIRPORT        CLEAR     30  25  81 CALM      29.90F
DOWNTOWN         N/A     40  28  63 CALM        N/A
$$

...SOME WEATHER OBSERVATIONS FROM AROUND THE REGION...

CITY           SKY/WX    TMP DP  RH WIND       PRES   REMARKS
DENVER         PTCLDY    46  29  51 SW9       30.01R
LARAMIE        PTCLDY    40  23  50 SW6       30.11F
CHEYENNE       PTCLDY    44  22  41 W10       30.04S
SCOTTSBLUFF      N/A    N/A N/A N/A MISG      29.95F
RAPID CITY     MOCLDY    46  28  49 W10       29.80F
PIERRE         CLOUDY    38  34  85 E7        29.79F WCI  33
WINNER         FAIR      50  35  56 S9        29.81F
SIOUX FALLS    CLEAR     36  31  82 S10G20    29.94F WCI  28
OMAHA          CLEAR     40  30  67 SE16      30.00F WCI  31
GRAND ISLAND   CLEAR     41  31  67 SE10      29.92F
KANSAS CITY    CLEAR     41  32  70 SE14      30.06F
WICHITA        CLEAR     49  35  58 S9        29.97F
HAYS           PTCLDY    54  28  37 SW9       29.93S
LIBERAL        CLEAR     43  28  56 S8        30.02F
GOODLAND       MOCLDY    34  27  75 CALM      29.93F
$$



USA.gov is the U.S. government's official web portal to all federal, state and local government web resources and services.